User: anonymous   Login
Location: Unspecified
(0.0000°N, 0.0000°E)
Time: 07:49:26
(UTC+00:00)
Language:

UNISAT 6 - Orbit

View from above orbital plane
View from above orbital plane
View from above satellite
View from above satellite

Ground track
Ground track

The orbit data is extracted from the following two-line orbital elements,

1 40012U 14033C   19166.68884620 +.00000126 +00000-0 +26128-4 0  9995
2 40012 097.7582 033.4303 0059766 107.0746 253.7021 14.73975601268246
Epoch (UTC): 15 June 2019 16:31:56
Eccentricity: 0.0059766
inclination: 97.7582°
perigee height: 606 km
apogee height: 690 km
right ascension of ascending node: 33.4303°
argument of perigee: 107.0746°
revolutions per day: 14.73975601
mean anomaly at epoch: 253.7021°
orbit number at epoch: 26824

The dashed part of the orbit path shows where the satellite is in the earth's shadow,  

DLR